KB5DPX Weather Reports


Display with metric or nautical units.
time (UTC)temp
F
wind
direction
speed
MPH
gust
MPH
rain 1hr
in
rain 24hr
in
rain mn
in
humidity
%
barometer
mb
20260506092729 35 306 0.0 4.0 0.00 0.00 0.00 81 1011.3
20260506092243 35 306 2.0 4.0 0.00 0.00 0.00 81 1011.3
20260506091727 35 306 3.0 4.0 0.00 0.00 0.00 80 1011.2
20260506091236 35 306 2.0 5.0 0.00 0.00 0.00 81 1011.2
20260506090741 35 306 3.0 6.0 0.00 0.00 0.00 80 1011.3
20260506090247 35 306 3.0 8.0 0.00 0.00 0.00 80 1011.3
20260506085725 35 306 4.0 8.0 0.00 0.00 0.00 79 1011.3
20260506085221 35 306 4.0 8.0 0.00 0.00 0.00 79 1011.4
20260506084735 35 305 5.0 8.0 0.00 0.00 0.00 78 1011.4
20260506084223 35 306 5.0 8.0 0.00 0.00 0.00 78 1011.4
20260506083736 35 306 4.0 9.0 0.00 0.00 0.00 77 1011.5
20260506083239 35 299 4.0 8.0 0.00 0.00 0.00 77 1011.5
20260506082736 36 298 5.0 8.0 0.00 0.00 0.00 76 1011.5
20260506082221 36 296 5.0 8.0 0.00 0.00 0.00 76 1011.6
20260506081736 36 292 4.0 8.0 0.00 0.00 0.00 76 1011.6
20260506081224 36 294 5.0 9.0 0.00 0.00 0.00 75 1011.6
20260506080736 36 296 5.0 10.0 0.00 0.00 0.00 76 1011.5
20260506080221 36 293 3.0 10.0 0.00 0.00 0.00 76 1011.4
20260506073221 36 298 5.0 9.0 0.00 0.00 0.00 74 1011.4
20260506072726 36 294 3.0 6.0 0.00 0.00 0.00 73 1011.4
20260506072239 36 298 4.0 6.0 0.00 0.00 0.00 72 1011.5
20260506071725 36 326 3.0 6.0 0.00 0.00 0.00 71 1011.6
20260506071234 36 331 2.0 6.0 0.00 0.00 0.00 71 1011.6
20260506070739 36 340 4.0 6.0 0.00 0.00 0.00 71 1011.6
20260506070243 36 344 3.0 4.0 0.00 0.00 0.00 71 1011.6
20260506062232 37 355 4.0 11.0 0.00 0.00 0.00 71 1011.7
20260506061744 37 327 8.0 11.0 0.00 0.00 0.00 70 1011.5
20260506061227 37 325 6.0 11.0 0.00 0.00 0.00 70 1011.7
20260506060738 37 341 5.0 9.0 0.00 0.00 0.00 72 1011.6
20260506060223 37 335 5.0 9.0 0.00 0.00 0.00 71 1011.6
20260506051245 38 30 0.0 0.0 0.00 0.00 0.00 71 1011.4
20260506050731 38 30 0.0 0.0 0.00 0.00 0.00 71 1011.4
20260506050244 38 30 0.0 0.0 0.00 0.00 0.00 71 1011.2
20260506044734 38 30 0.0 4.0 0.00 0.00 0.00 71 1011.3
20260506044220 38 30 1.0 5.0 0.00 0.00 0.00 70 1011.2
20260506043735 38 30 3.0 5.0 0.00 0.00 0.00 70 1011.2
20260506043242 38 31 2.0 4.0 0.00 0.00 0.00 69 1011.2
20260506042720 38 31 2.0 5.0 0.00 0.00 0.00 70 1011.2
20260506042235 38 31 3.0 5.0 0.00 0.00 0.00 70 1011.1
20260506041721 38 32 3.0 6.0 0.00 0.00 0.00 70 1011.3
20260506041237 38 34 3.0 6.0 0.00 0.00 0.00 70 1011.2
20260506040740 38 35 4.0 9.0 0.00 0.00 0.00 70 1011.1
20260506040245 38 31 4.0 9.0 0.00 0.00 0.00 71 1011.1
20260506035734 38 30 3.0 8.0 0.00 0.00 0.00 71 1011.1
20260506035241 38 37 5.0 9.0 0.00 0.00 0.00 71 1011.0
20260506034725 38 32 5.0 9.0 0.00 0.00 0.00 70 1011.0
20260506034240 38 27 5.0 10.0 0.00 0.00 0.00 71 1011.0
20260506033726 38 17 5.0 11.0 0.00 0.00 0.00 71 1011.0
20260506033240 38 43 7.0 11.0 0.00 0.00 0.00 72 1010.9
20260506032735 39 17 7.0 11.0 0.00 0.00 0.00 72 1010.9
20260506032221 39 11 7.0 12.0 0.00 0.00 0.00 72 1011.0
20260506031736 39 13 7.0 13.0 0.00 0.00 0.00 72 1010.7
20260506031223 39 344 5.0 12.0 0.00 0.00 0.00 73 1010.8
20260506030737 39 13 7.0 12.0 0.00 0.00 0.00 73 1010.7
20260506030241 39 5 5.0 10.0 0.00 0.00 0.00 74 1010.7
20260506025739 39 348 6.0 10.0 0.00 0.00 0.00 73 1010.6
20260506025225 39 34 7.0 13.0 0.00 0.00 0.00 74 1010.5
20260506024735 39 19 8.0 13.0 0.00 0.00 0.00 76 1010.4
20260506024221 40 22 4.0 11.0 0.00 0.00 0.00 76 1010.3
20260506023736 40 17 6.0 12.0 0.00 0.00 0.00 76 1010.3
20260506023244 40 5 9.0 12.0 0.00 0.00 0.00 76 1010.4
20260506022721 40 355 6.0 12.0 0.00 0.00 0.00 76 1010.2
20260506022237 40 9 7.0 13.0 0.00 0.00 0.00 76 1010.1
20260506021722 40 341 9.0 13.0 0.00 0.00 0.00 76 1010.0
20260506021237 40 5 9.0 15.0 0.00 0.00 0.00 77 1010.1
20260506020739 41 343 8.0 15.0 0.00 0.00 0.00 78 1009.9
20260506020245 41 38 7.0 11.0 0.00 0.00 0.00 79 1009.7
20260506015722 41 19 8.0 12.0 0.00 0.00 0.00 79 1009.7
20260506015238 41 5 6.0 12.0 0.00 0.00 0.00 79 1009.6
20260506014724 41 349 9.0 13.0 0.00 0.00 0.00 79 1009.6
20260506014238 41 5 6.0 14.0 0.00 0.00 0.00 78 1009.6
20260506013724 42 30 7.0 12.0 0.00 0.00 0.00 78 1009.5
20260506013240 42 346 6.0 9.0 0.00 0.00 0.00 77 1009.4
20260506012736 42 15 5.0 10.0 0.00 0.00 0.00 76 1009.2
20260506012222 42 11 8.0 13.0 0.00 0.00 0.00 76 1009.1
20260506011738 42 349 9.0 13.0 0.00 0.00 0.00 76 1009.0
20260506011243 42 5 5.0 12.0 0.00 0.00 0.00 76 1009.0
20260506010730 43 355 8.0 12.0 0.00 0.00 0.00 76 1008.9
20260506010245 43 355 8.0 12.0 0.00 0.00 0.00 76 1008.8
20260506005724 43 343 7.0 12.0 0.00 0.02 0.00 75 1008.7
20260506005239 43 360 7.0 11.0 0.00 0.02 0.00 74 1008.7
20260506004740 43 360 7.0 11.0 0.00 0.02 0.00 74 1008.6
20260506004226 44 346 6.0 11.0 0.00 0.02 0.00 73 1008.6
20260506003742 44 344 7.0 11.0 0.00 0.02 0.00 72 1008.6
20260506003247 44 350 8.0 12.0 0.00 0.02 0.00 71 1008.5
20260506002725 44 344 8.0 12.0 0.00 0.02 0.00 70 1008.4
20260506002239 44 311 6.0 9.0 0.00 0.02 0.00 69 1008.5
20260506001723 44 306 3.0 9.0 0.00 0.02 0.00 70 1008.4
20260506001236 44 304 4.0 9.0 0.00 0.02 0.00 70 1008.4
20260506000736 44 304 4.0 9.0 0.00 0.02 0.00 70 1008.3
20260506000241 44 306 7.0 10.0 0.00 0.02 0.00 68 1008.3
20260505235736 45 302 7.0 12.0 0.00 0.14 0.00 65 1008.3
20260505235224 45 304 7.0 12.0 0.00 0.14 0.00 62 1008.2
20260505234736 45 317 6.0 12.0 0.00 0.14 0.00 61 1008.1
20260505234240 45 309 7.0 15.0 0.00 0.14 0.00 62 1008.1
20260505233745 45 312 9.0 15.0 0.00 0.14 0.00 62 1008.1
20260505233246 45 304 10.0 16.0 0.00 0.14 0.00 62 1008.1
20260505232742 45 309 9.0 16.0 0.00 0.14 0.00 62 1008.0
20260505232247 46 289 11.0 16.0 0.00 0.14 0.00 60 1008.1
20260505231731 46 308 10.0 18.0 0.00 0.14 0.00 61 1008.0
20260505231245 48 301 11.0 18.0 0.00 0.14 0.00 58 1008.0
20260505230730 51 269 11.0 18.0 0.00 0.14 0.00 48 1007.9
20260505230248 51 276 8.0 19.0 0.00 0.14 0.00 46 1007.7
20260505225724 51 260 11.0 18.0 0.00 0.14 0.00 45 1007.7
20260505225235 51 232 10.0 18.0 0.00 0.14 0.00 45 1007.7
20260505224741 51 236 11.0 18.0 0.00 0.14 0.00 45 1007.9
20260505224246 51 258 9.0 20.0 0.00 0.14 0.00 44 1007.8
20260505223730 51 253 11.0 20.0 0.00 0.14 0.00 45 1007.7
20260505223246 51 254 10.0 15.0 0.00 0.14 0.00 44 1007.9
20260505222724 51 226 8.0 16.0 0.00 0.14 0.00 43 1007.7
20260505222237 51 255 7.0 18.0 0.00 0.14 0.00 45 1007.7
20260505221737 51 277 13.0 18.0 0.00 0.14 0.00 44 1007.6
20260505221242 51 282 12.0 21.0 0.00 0.14 0.00 45 1007.6
20260505220742 51 253 13.0 21.0 0.00 0.14 0.00 45 1007.7
20260505220226 51 240 13.0 19.0 0.00 0.14 0.00 44 1007.6
20260505215732 51 230 11.0 17.0 0.00 0.14 0.00 44 1007.7
20260505215245 51 255 9.0 20.0 0.00 0.14 0.00 44 1007.6
20260505214732 51 259 8.0 20.0 0.00 0.14 0.00 43 1007.6
20260505214245 51 260 11.0 17.0 0.00 0.14 0.00 45 1007.7
20260505213744 51 246 12.0 20.0 0.00 0.14 0.00 47 1007.5
20260505213249 52 223 13.0 20.0 0.00 0.14 0.00 44 1007.5
20260505212744 52 279 11.0 17.0 0.00 0.14 0.00 46 1007.4
20260505212231 51 257 12.0 22.0 0.00 0.14 0.00 45 1007.5
20260505211748 52 288 15.0 22.0 0.00 0.14 0.00 45 1007.5
20260505211236 52 238 11.0 20.0 0.00 0.14 0.00 45 1007.6
20260505210723 52 252 10.0 19.0 0.00 0.14 0.00 47 1007.6
20260505210238 52 255 13.0 19.0 0.00 0.14 0.00 47 1007.6
20260505205734 51 253 12.0 24.0 0.00 0.14 0.00 45 1007.5
20260505205241 51 253 11.0 24.0 0.00 0.14 0.00 44 1007.5
20260505204748 51 263 15.0 23.0 0.00 0.14 0.00 45 1007.6
20260505204236 51 256 14.0 23.0 0.00 0.14 0.00 46 1007.5
20260505203722 51 249 13.0 21.0 0.00 0.14 0.00 44 1007.5
20260505203238 51 249 11.0 21.0 0.00 0.14 0.00 45 1007.4
20260505202737 51 279 14.0 22.0 0.00 0.14 0.00 46 1007.4
20260505202226 51 240 12.0 26.0 0.00 0.14 0.00 48 1007.3
20260505201735 51 244 18.0 26.0 0.00 0.14 0.00 45 1007.3
20260505201222 51 250 14.0 21.0 0.00 0.14 0.00 47 1007.4
20260505200738 51 280 14.0 22.0 0.00 0.14 0.00 46 1007.4
20260505200224 51 265 15.0 23.0 0.00 0.14 0.00 47 1007.3
20260505195726 51 234 12.0 23.0 0.00 0.14 0.00 47 1007.3
20260505195239 50 257 13.0 25.0 0.00 0.14 0.00 45 1007.3
20260505194725 51 227 16.0 25.0 0.00 0.14 0.00 47 1007.4
20260505194240 51 257 14.0 25.0 0.00 0.14 0.00 46 1007.4
20260505193722 51 211 14.0 29.0 0.00 0.14 0.00 49 1007.3
20260505193237 50 270 15.0 29.0 0.00 0.14 0.00 48 1007.5
20260505192735 50 236 15.0 23.0 0.00 0.14 0.00 48 1007.4
20260505192240 50 259 11.0 22.0 0.00 0.14 0.00 45 1007.3
20260505191727 50 257 13.0 21.0 0.00 0.14 0.00 51 1007.3
20260505191222 50 292 12.0 18.0 0.00 0.14 0.00 53 1007.4
20260505190737 50 245 11.0 17.0 0.00 0.14 0.00 53 1007.3
20260505190224 50 289 11.0 18.0 0.00 0.14 0.00 53 1007.3
20260505185747 49 275 9.0 18.0 0.00 0.14 0.00 53 1007.2
20260505185232 49 294 12.0 20.0 0.00 0.14 0.00 55 1007.1
20260505184739 49 281 12.0 21.0 0.00 0.14 0.00 55 1007.1
20260505184245 49 299 14.0 21.0 0.00 0.14 0.00 54 1007.0
20260505183730 49 299 10.0 21.0 0.00 0.14 0.00 55 1007.0
20260505183244 49 270 12.0 18.0 0.00 0.14 0.00 56 1007.0
20260505182739 49 273 12.0 17.0 0.00 0.14 0.00 56 1006.9
20260505182222 48 309 12.0 18.0 0.00 0.14 0.00 61 1006.9
20260505181749 48 289 13.0 18.0 0.00 0.14 0.00 60 1006.9
20260505181233 47 286 13.0 19.0 0.00 0.14 0.00 61 1006.9
20260505180738 47 284 13.0 20.0 0.00 0.14 0.00 61 1006.9
20260505180223 47 279 14.0 20.0 0.00 0.14 0.00 61 1006.8
20260505175728 47 286 13.0 19.0 0.00 0.14 0.00 61 1006.9
20260505175242 46 284 14.0 19.0 0.00 0.14 0.00 64 1006.8
20260505174726 46 304 12.0 19.0 0.00 0.14 0.00 63 1006.8
20260505174235 46 292 14.0 19.0 0.00 0.14 0.00 64 1006.7
20260505173739 46 276 11.0 19.0 0.00 0.14 0.00 66 1006.6
20260505173242 46 290 12.0 20.0 0.00 0.14 0.00 65 1006.6
20260505172739 46 278 12.0 20.0 0.00 0.14 0.00 65 1006.7
20260505172244 46 292 13.0 21.0 0.00 0.14 0.00 63 1006.6
20260505171729 46 279 13.0 20.0 0.00 0.14 0.00 64 1006.6
20260505171243 46 271 15.0 20.0 0.00 0.14 0.00 64 1006.6
20260505170743 46 282 13.0 19.0 0.00 0.14 0.00 64 1006.5
20260505170226 46 261 11.0 20.0 0.00 0.14 0.00 65 1006.5
20260505165747 46 286 10.0 16.0 0.00 0.14 0.00 65 1006.5
20260505165232 46 296 11.0 16.0 0.00 0.14 0.00 64 1006.4
20260505164744 46 287 9.0 16.0 0.00 0.14 0.00 66 1006.4
20260505164227 46 281 8.0 16.0 0.00 0.14 0.00 65 1006.3
20260505163739 46 290 12.0 16.0 0.00 0.14 0.00 65 1006.4
20260505163225 46 295 12.0 17.0 0.00 0.14 0.00 67 1006.4
20260505162748 46 296 12.0 17.0 0.00 0.14 0.00 65 1006.3
20260505162234 46 289 10.0 17.0 0.00 0.14 0.00 67 1006.4
20260505161738 46 298 9.0 18.0 0.00 0.14 0.00 68 1006.4
20260505161224 45 271 13.0 18.0 0.00 0.14 0.00 67 1006.4
20260505160738 45 300 9.0 16.0 0.00 0.14 0.00 66 1006.4
20260505160225 45 298 10.0 17.0 0.00 0.14 0.00 68 1006.4
20260505153249 44 294 8.0 12.0 0.00 0.14 0.00 75 1006.5
20260505152727 44 296 7.0 14.0 0.00 0.14 0.00 76 1006.5
20260505152240 44 290 8.0 14.0 0.00 0.14 0.00 77 1006.5
20260505151725 43 304 10.0 13.0 0.00 0.14 0.00 77 1006.5
20260505151239 43 294 9.0 13.0 0.00 0.14 0.00 77 1006.5
20260505150722 43 284 8.0 13.0 0.00 0.14 0.00 77 1006.4
20260505150237 43 298 8.0 13.0 0.00 0.14 0.00 78 1006.2
20260505140240 42 284 4.0 10.0 0.00 0.14 0.00 80 1005.6
20260505130221 42 281 6.0 10.0 0.00 0.14 0.00 79 1004.6
20260505124746 42 280 6.0 9.0 0.00 0.14 0.00 79 1004.4
20260505124232 42 286 6.0 10.0 0.00 0.14 0.00 79 1004.4
20260505123746 42 289 6.0 12.0 0.00 0.14 0.00 79 1004.2
20260505123226 42 285 6.0 12.0 0.00 0.14 0.00 78 1004.3
20260505122747 42 278 8.0 14.0 0.00 0.14 0.00 78 1004.3
20260505122247 42 274 9.0 14.0 0.00 0.14 0.00 78 1004.3
20260505121731 43 291 7.0 11.0 0.00 0.14 0.00 77 1004.3
20260505121246 43 282 8.0 11.0 0.00 0.14 0.00 77 1004.1
20260505120732 42 277 8.0 11.0 0.00 0.14 0.00 77 1004.0
20260505120249 42 274 4.0 9.0 0.00 0.14 0.00 77 1004.0
20260505115726 42 274 6.0 11.0 0.00 0.15 0.00 77 1004.0
20260505115238 42 271 6.0 11.0 0.00 0.15 0.00 77 1003.9
20260505114721 42 275 7.0 10.0 0.00 0.15 0.00 78 1003.8
20260505114236 42 276 5.0 11.0 0.00 0.15 0.00 79 1003.8
20260505113744 42 282 1.0 8.0 0.00 0.15 0.00 80 1003.9
20260505113248 41 284 0.0 0.0 0.00 0.15 0.00 81 1003.6
20260505112745 41 284 0.0 0.0 0.00 0.15 0.00 82 1003.7
20260505112229 40 284 0.0 0.0 0.00 0.15 0.00 83 1003.6
20260505111737 40 284 0.0 0.0 0.00 0.15 0.00 84 1003.6
20260505111239 39 284 0.0 0.0 0.00 0.15 0.00 84 1003.6
20260505110744 39 284 0.0 0.0 0.00 0.15 0.00 85 1003.6
20260505110249 39 284 0.0 0.0 0.00 0.15 0.00 85 1003.5
20260505101740 39 284 0.0 0.0 0.00 0.15 0.00 83 1002.7
20260505101225 40 285 0.0 4.0 0.00 0.15 0.00 83 1002.5
20260505100741 40 285 0.0 5.0 0.00 0.15 0.00 83 1002.5
20260505100244 40 285 3.0 7.0 0.00 0.15 0.00 82 1002.5
20260505095742 40 285 4.0 8.0 0.00 0.15 0.00 82 1002.5
20260505095246 40 285 3.0 8.0 0.00 0.15 0.00 82 1002.4
20260505094732 40 286 5.0 9.0 0.00 0.15 0.00 82 1002.4
20260505094247 40 291 4.0 8.0 0.00 0.15 0.00 82 1002.3
20260505093732 40 292 0.0 0.0 0.00 0.15 0.00 81 1002.1
20260505093247 40 292 0.0 0.0 0.00 0.15 0.00 81 1002.1